Location: Poughquag
(41.6090°N, 73.6820°W)
Time: 10:36:34
(UTC-05:00)

Vanguard 1 - Pass Details

Date: 07 December 2023
Orbit: 653 x 3826 km, 34.3° (Epoch: 25 February)

Event Time Altitude Azimuth Distance (km) Brightness Sun altitude
Rises 21:33:16 0° 277° (W) 6,799 14.8 -56.4°
Reaches altitude 10° 21:37:21 10° 274° (W) 6,096 14.4 -57.1°
Enters shadow 21:53:00 53° 236° (SW) 4,300 13.0 -59.7°
Maximum altitude 21:57:45 58° 203° (SSW) 4,203 - -60.4°
Drops below altitude 10° 22:19:13 10° 131° (SE) 6,352 - -63.7°
Sets 22:23:37 0° 127° (SE) 7,082 - -64.3°
